[[{"header":{"parameterUnit":"m.s-1","parameterCategory":1,"la1":30.2991,"la2":30.254,"lo1":-89.0895,"lo2":-89.0444,"dy":0.0017,"dx":0.0017,"nx":28,"ny":28,"refTime":"2025-04-24T21:00:00:Z","depth":0,"parameterNumber":2,"parameterNumberName":"U-component_of_WINDS"},"data":[0,0,0,0,0,0,0,0,0,0,0,0,0,0,0,0,0,0,0,0,0,0,0,0,0,0,0,0,0,0,0,0,0,0,0,0,0,0,0,0,0,0,0,0,0,0,0,0,0,0,0,0,0,0,0,0,0,0,-2.5974,-2.5975,0,-2.6067,-2.6068,-2.6069,-2.607,-2.6069,-2.6068,-2.6067,-2.6162,-2.6166,-2.6169,0,0,0,0,0,0,0,0,0,0,0,0,0,-2.5799,-2.5802,-2.5974,-2.5975,-2.5976,-2.6067,-2.6068,-2.6069,-2.6071,-2.6069,-2.6068,-2.6066,-2.6161,-2.6165,-2.617,0,0,0,0,0,0,0,0,0,0,0,0,0,-2.5882,-2.5804,-2.5974,-2.5988,-2.599,-2.6067,-2.6068,-2.607,-2.6071,-2.6069,-2.6067,-2.6066,-2.616,-2.6165,-2.617,-2.6239,0,0,-2.6187,-2.6189,0,0,0,0,0,0,0,0,-2.5877,-2.5888,-2.5985,-2.5987,-2.599,-2.6055,-2.6041,-2.6126,-2.6071,-2.604,-2.6067,-2.6065,-2.6128,-2.6136,-2.6157,-2.6243,-2.6248,-2.6187,-2.6191,-2.6193,-2.6195,0,0,0,0,0,0,0,-2.5872,-2.5884,-2.6011,-2.5986,-2.5989,-2.599,-2.6,-2.6057,-2.6093,-2.6043,-2.6043,-2.6054,-2.6129,-2.6152,-2.616,-2.6249,-2.6187,-2.6192,-2.6195,-2.6198,-2.6397,-2.6399,0,0,0,0,0,0,-2.5863,-2.588,-2.6008,-2.6014,-2.5928,-2.5995,-2.6006,-2.6036,-2.6092,-2.6099,-2.6055,-2.6054,-2.6144,-2.6153,-2.6163,-2.6247,-2.6193,-2.6198,-2.6201,-2.6395,-2.6397,-2.64,0,0,0,0,0,0,-2.5859,-2.5874,-2.6004,-2.5947,-2.5963,-2.5999,-2.6034,-2.6039,-2.6062,-2.6102,-2.6108,-2.6072,-2.6143,-2.6155,-2.622,-2.625,-2.6201,-2.6206,-2.6393,-2.6396,-2.6399,-2.6416,0,0,0,0,0,0,-2.5854,-2.5873,-2.5899,-2.5947,-2.5966,-2.606,-2.6036,-2.6042,-2.6071,-2.607,-2.6119,-2.6126,-2.6142,-2.6212,-2.6226,-2.6257,-2.621,-2.639,-2.6394,-2.6398,-2.6413,-2.6419,-2.6425,0,0,0,0,0,-2.5848,-2.59,-2.59,-2.5916,-2.6,-2.6061,-2.6072,-2.609,-2.6073,-2.61,-2.6126,-2.6124,-2.6245,-2.6219,-2.6234,-2.6267,-2.6388,-2.6393,-2.6397,-2.641,-2.6418,-2.6425,0,0,0,0,0,0,-2.5854,-2.5907,-2.5907,-2.5977,-2.6015,-2.6061,-2.6096,-2.6098,-2.6141,-2.6138,-2.6158,-2.6169,-2.6234,-2.6257,-2.6227,-2.6337,-2.6315,-2.6323,-2.6319,-2.6327,-2.6333,-2.6326,-2.6214,0,0,0,0,0,-2.5864,-2.5909,-2.5953,-2.601,-2.6029,-2.6059,-2.6087,-2.6097,-2.6137,-2.6153,-2.6184,-2.6223,-2.6269,-2.63,-2.6345,-2.6417,-2.6428,-2.6448,-2.6453,-2.6458,-2.6464,-2.6504,-2.6514,-2.6415,-2.6415,-2.6415,0,0,-2.5884,-2.5918,-2.5946,-2.6012,-2.6043,-2.6089,-2.6072,-2.6123,-2.6158,-2.6161,-2.6224,-2.6248,-2.6293,-2.6361,-2.6393,-2.6383,-2.6494,-2.6464,-2.6467,-2.6471,-2.651,-2.6519,-2.6528,-2.6418,-2.6417,-2.6417,0,0,-2.5945,-2.5975,-2.6026,-2.6057,-2.6104,-2.6124,-2.6136,-2.6183,-2.6199,-2.6263,-2.6266,-2.6308,-2.6388,-2.642,-2.6447,-2.6521,-2.6521,-2.6536,-2.6566,-2.6605,-2.6613,-2.662,-2.6646,-2.6655,-2.6542,-2.6542,-2.6542,0,-2.5964,-2.6034,-2.6052,-2.6103,-2.6132,-2.6137,-2.6189,-2.6219,-2.6278,-2.6298,-2.6286,-2.6387,-2.6418,-2.6494,-2.6512,-2.6534,-2.6549,-2.6529,-2.661,-2.6617,-2.6624,-2.6649,-2.6659,-2.6543,-2.6543,-2.6543,-2.6543,0,-2.6055,-2.6104,-2.614,-2.6197,-2.623,-2.6281,-2.6308,-2.634,-2.6348,-2.6369,-2.6434,-2.6471,-2.6524,-2.6544,-2.6552,-2.6622,-2.6614,-2.6606,-2.6583,-2.6635,-2.6659,-2.6669,-2.6545,-2.6545,-2.6544,-2.6544,0,0,-2.6122,-2.6188,-2.6201,-2.6227,-2.6279,-2.6318,-2.6369,-2.6421,-2.6448,-2.6489,-2.6533,-2.6601,-2.6595,-2.6625,-2.6637,-2.6671,-2.6727,-2.6659,-2.666,-2.667,-2.6807,-2.6812,-2.6823,-2.6728,-2.673,-2.6732,-2.6803,0,-2.6187,-2.6279,-2.6297,-2.6377,-2.6422,-2.6428,-2.6474,-2.6511,-2.6532,-2.6574,-2.6599,-2.6647,-2.6634,-2.6652,-2.6687,-2.6713,-2.6755,-2.6709,-2.6769,-2.6771,-2.6757,-2.6835,-2.6841,-2.6906,-2.6812,-2.6814,-2.6815,0,-2.6276,-2.6319,-2.6403,-2.6449,-2.6469,-2.6509,-2.6559,-2.6599,-2.6642,-2.6655,-2.669,-2.6698,-2.6753,-2.6728,-2.6804,-2.6772,-2.6798,-2.6815,-2.6818,-2.6824,-2.6796,-2.6843,-2.6927,-2.6937,-2.683,-2.6829,-2.6828,0,-2.6316,-2.6395,-2.6455,-2.6477,-2.6533,-2.6561,-2.6586,-2.6627,-2.6657,-2.67,-2.672,-2.677,-2.6797,-2.6835,-2.6857,-2.6837,-2.6931,-2.6908,-2.6943,-2.6943,-2.6962,-2.696,-2.7052,-2.698,-2.698,-2.698,-2.6979,0,-2.6387,-2.6438,-2.6473,-2.6511,-2.6568,-2.6589,-2.6646,-2.667,-2.6707,-2.6749,-2.6758,-2.6798,-2.6824,-2.6868,-2.6886,-2.6946,-2.6958,-2.697,-2.6974,-2.6969,-2.6968,-2.6986,-2.6982,-2.6982,-2.6982,-2.6981,-2.6981,0,-2.644,-2.6466,-2.6532,-2.658,-2.6593,-2.6634,-2.6675,-2.6711,-2.6733,-2.6787,-2.6801,-2.6836,-2.6888,-2.6914,-2.6978,-2.699,-2.7058,-2.7059,-2.7043,-2.7044,-2.7078,-2.7074,-2.7184,-2.7199,-2.7118,-2.7118,-2.7119,0,-2.6483,-2.6523,-2.6575,-2.6604,-2.6629,-2.6676,-2.6707,-2.6729,-2.6761,-2.6813,-2.6844,-2.6896,-2.6939,-2.7022,-2.7053,-2.7103,-2.7105,-2.714,-2.7113,-2.7106,-2.7105,-2.7102,-2.7106,-2.7145,-2.7145,-2.7146,-2.7147,0,-2.6558,-2.6569,-2.6613,-2.6662,-2.6699,-2.6738,-2.6778,-2.6801,-2.683,-2.6866,-2.6919,-2.6952,-2.7019,-2.707,-2.7122,-2.7148,-2.7153,-2.7155,-2.7166,-2.7161,-2.715,-2.7156,-2.7056,-2.7152,-2.7152,-2.7151,-2.7151,-2.7151,-2.6607,-2.6643,-2.6685,-2.6734,-2.6766,-2.6803,-2.6839,-2.6866,-2.6911,-2.6966,-2.6977,-2.7034,-2.7076,-2.7146,-2.7174,-2.7219,-2.7211,-2.7227,-2.7231,-2.7234,-2.7235,-2.7143,-2.7228,-2.7228,-2.7228,-2.7228,-2.7228,0,-2.6682,-2.6709,-2.6754,-2.6809,-2.6848,-2.6848,-2.6892,-2.6925,-2.6974,-2.7013,-2.7055,-2.7117,-2.7167,-2.7203,-2.7254,-2.7283,-2.7287,-2.7296,-2.7294,-2.73,-2.7239,-2.7225,-2.7293,-2.7293,-2.7293,-2.7293,-2.7293,-2.7293,-2.6725,-2.6785,-2.6801,-2.6877,-2.6905,-2.696,-2.6985,-2.7019,-2.705,-2.7118,-2.716,-2.7183,-2.7221,-2.7275,-2.7322,-2.7331,-2.735,-2.7359,-2.7368,-2.7311,-2.7304,-2.7298,-2.7284,-2.7363,-2.7363,-2.7425,-2.7426,-2.7426]},{"header":{"parameterUnit":"m.s-1","parameterCategory":1,"la1":30.2991,"la2":30.254,"lo1":-89.0895,"lo2":-89.0444,"dy":0.0017,"dx":0.0017,"nx":28,"ny":28,"refTime":"2025-04-24T21:00:00:Z","depth":0,"parameterNumber":3,"parameterNumberName":"V-component_of_WINDS"},"data":[0,0,0,0,0,0,0,0,0,0,0,0,0,0,0,0,0,0,0,0,0,0,0,0,0,0,0,0,0,0,0,0,0,0,0,0,0,0,0,0,0,0,0,0,0,0,0,0,0,0,0,0,0,0,0,0,0,0,3.5449,3.545,0,3.5482,3.5483,3.5483,3.5449,3.5447,3.5446,3.5445,3.5476,3.5478,3.548,0,0,0,0,0,0,0,0,0,0,0,0,0,3.5355,3.5357,3.5449,3.545,3.545,3.5482,3.5483,3.5483,3.5449,3.5447,3.5446,3.5444,3.5476,3.5478,3.5481,0,0,0,0,0,0,0,0,0,0,0,0,0,3.5393,3.5357,3.5449,3.5437,3.5436,3.5482,3.5483,3.5483,3.5449,3.5447,3.5445,3.5443,3.5475,3.5478,3.5481,3.554,0,0,3.549,3.5492,0,0,0,0,0,0,0,0,3.539,3.5396,3.5438,3.5438,3.5437,3.5459,3.5461,3.5502,3.545,3.5444,3.5445,3.5442,3.5472,3.5475,3.5486,3.5541,3.5543,3.5491,3.5493,3.5494,3.5495,0,0,0,0,0,0,0,3.5388,3.5394,3.5462,3.5439,3.5438,3.5429,3.5432,3.5468,3.5469,3.5445,3.5442,3.5447,3.5471,3.5483,3.5486,3.5543,3.5491,3.5493,3.5495,3.5497,3.5648,3.565,0,0,0,0,0,0,3.5387,3.5393,3.5461,3.5463,3.5409,3.5433,3.5436,3.5454,3.5468,3.5469,3.5448,3.5445,3.5479,3.5483,3.5487,3.5557,3.5494,3.5497,3.5499,3.5646,3.5649,3.5651,0,0,0,0,0,0,3.5385,3.5393,3.546,3.5427,3.5435,3.5436,3.5457,3.5456,3.5467,3.5471,3.5471,3.546,3.5477,3.5483,3.5527,3.5558,3.5498,3.5501,3.5644,3.5647,3.565,3.5697,0,0,0,0,0,0,3.5382,3.5393,3.5416,3.5428,3.5437,3.55,3.5459,3.5458,3.5473,3.5469,3.5482,3.5482,3.5476,3.5523,3.553,3.5561,3.5503,3.5641,3.5645,3.5649,3.5693,3.5702,3.5709,0,0,0,0,0,3.5379,3.5427,3.5417,3.5426,3.5466,3.5502,3.5507,3.5499,3.5476,3.5498,3.5501,3.5482,3.5553,3.5528,3.5536,3.5568,3.5639,3.5644,3.5649,3.5689,3.57,3.5709,0,0,0,0,0,0,3.5418,3.5429,3.5417,3.5471,3.5486,3.5496,3.5524,3.551,3.5532,3.5527,3.5516,3.5519,3.5566,3.5571,3.5542,3.5625,3.5592,3.5599,3.562,3.5631,3.5638,3.5636,3.5506,0,0,0,0,0,3.5433,3.5462,3.5469,3.5516,3.5524,3.5523,3.5538,3.5531,3.5546,3.5552,3.5557,3.5572,3.5597,3.5614,3.5638,3.5694,3.5696,3.572,3.5728,3.5735,3.574,3.577,3.5781,3.5667,3.5667,3.5667,0,0,3.5463,3.5473,3.5492,3.5524,3.5534,3.5564,3.5528,3.5561,3.5583,3.5556,3.5599,3.5603,3.5618,3.5669,3.5691,3.5675,3.5773,3.5741,3.5746,3.5748,3.5777,3.5787,3.5797,3.5671,3.567,3.5669,0,0,3.5534,3.5545,3.5585,3.5596,3.5613,3.5612,3.5622,3.5634,3.5637,3.5679,3.566,3.5685,3.5729,3.5741,3.5753,3.5829,3.5812,3.5837,3.5879,3.5909,3.5918,3.5925,3.5953,3.5962,3.5843,3.5843,3.5843,0,3.557,3.5615,3.5607,3.5642,3.5656,3.5634,3.5674,3.5685,3.5709,3.5719,3.57,3.5756,3.5764,3.5817,3.5836,3.5846,3.5856,3.5835,3.5917,3.5925,3.5932,3.5958,3.5968,3.5846,3.5845,3.5845,3.5845,0,3.5658,3.569,3.572,3.5744,3.5762,3.5799,3.5796,3.5815,3.5806,3.5807,3.5851,3.586,3.5886,3.5898,3.5889,3.595,3.5939,3.5919,3.5885,3.5946,3.597,3.598,3.585,3.5849,3.5848,3.5847,0,0,3.5754,3.5774,3.5785,3.5796,3.5813,3.5837,3.5873,3.5898,3.5915,3.5932,3.5961,3.6,3.5982,3.5995,3.5988,3.6013,3.6073,3.599,3.599,3.6005,3.614,3.6155,3.6167,3.6062,3.6064,3.6066,3.6139,0,3.5826,3.589,3.5883,3.5943,3.5972,3.5952,3.5983,3.5997,3.5998,3.6023,3.6024,3.6052,3.6025,3.6033,3.6058,3.6061,3.61,3.6055,3.6089,3.6091,3.6086,3.6179,3.6195,3.6264,3.6148,3.615,3.6151,0,3.5918,3.594,3.6003,3.6016,3.6027,3.6056,3.6079,3.6102,3.6117,3.6117,3.6132,3.612,3.6156,3.6122,3.6171,3.614,3.6154,3.6157,3.616,3.6163,3.6125,3.6184,3.6285,3.6296,3.6166,3.6164,3.6163,0,3.5982,3.6026,3.607,3.608,3.6096,3.6116,3.6124,3.6137,3.6153,3.6173,3.6183,3.6206,3.6219,3.6237,3.6232,3.6208,3.6282,3.6248,3.6282,3.6283,3.6299,3.6298,3.6403,3.6308,3.6308,3.6308,3.6307,0,3.6063,3.6103,3.6099,3.6126,3.6169,3.6161,3.6204,3.6209,3.6221,3.6248,3.6231,3.6257,3.6248,3.6273,3.6269,3.631,3.6316,3.6317,3.6315,3.6318,3.6318,3.6327,3.6322,3.631,3.631,3.6309,3.6309,0,3.6142,3.6141,3.6187,3.6199,3.6203,3.6234,3.6244,3.6269,3.627,3.6304,3.6312,3.6312,3.6341,3.6338,3.6369,3.6367,3.6418,3.641,3.6413,3.6411,3.6447,3.6443,3.6561,3.6576,3.6471,3.6472,3.6473,0,3.6193,3.6223,3.6239,3.6256,3.6265,3.6293,3.6309,3.6303,3.632,3.6339,3.6362,3.6389,3.6411,3.6457,3.646,3.6484,3.6477,3.6517,3.6481,3.6483,3.6478,3.6477,3.6479,3.6524,3.6525,3.6526,3.6527,0,3.6285,3.6284,3.6308,3.6333,3.6353,3.6372,3.6389,3.6404,3.6398,3.6419,3.6448,3.6465,3.6498,3.6525,3.6548,3.6555,3.654,3.6539,3.6548,3.6551,3.6552,3.6552,3.6433,3.6536,3.6535,3.6534,3.6534,3.6534,3.6352,3.6378,3.6393,3.6421,3.6433,3.6449,3.6474,3.6478,3.6502,3.6529,3.6523,3.6556,3.657,3.6599,3.6609,3.6634,3.662,3.6633,3.6637,3.664,3.6645,3.6548,3.6638,3.6638,3.6638,3.6638,3.6638,0,3.6443,3.6452,3.6478,3.6502,3.6524,3.6509,3.6528,3.6547,3.6576,3.6591,3.6613,3.6646,3.6673,3.6678,3.6703,3.6722,3.6716,3.6729,3.6728,3.6729,3.6656,3.6645,3.6734,3.6734,3.6734,3.6734,3.6733,3.6733,3.6493,3.6536,3.6536,3.6585,3.6593,3.6626,3.6638,3.6652,3.6664,3.6703,3.6725,3.6728,3.6739,3.6765,3.6788,3.6789,3.6799,3.6815,3.6813,3.6744,3.6735,3.6725,3.6715,3.6817,3.6817,3.6884,3.6885,3.6885]}]]